www.pogodaiklimat.ru

Погода и климат >> Архив погоды >> Индия >> Ассам >> Силчар


ПОГОДА в Силчаре

  • Прогноз погоды в Силчаре
  • Монитор погоды в Силчаре

АРХИВ ПОГОДЫ в Силчаре

Время (UTC), дата Ветер
(напр.,м/с)
 
Видим.   Явления Облачность Т
(С)
Тd
(С)
f
(%)
Тe
(С)
Тes
(С)
Комфортность P
(гПа)
Po
(гПа)
Тmin
(С)
Tmax
(С)
R
(мм)
R24
(мм)
S
(см)
03 16.09 штиль 0 4000 м мгла 9/4 600 м
[Cb calv Ac trans Ci fib]
+29.0 +25.3 80 +42 +47 опасность
перегрева
1008.2 1004.9 +26.0 0.7
06 16.09 штиль 0 4000 м мгла 8/5 600 м
[Sc diur, vesp Ac trans]
+32.0 +26.7 74 +49 +57 опасность
перегрева
1006.8 1003.5
09 16.09 ЮЗ 1 4000 м гроза, ливневой дождь 9/5 540 м
[Cb calv Ac trans]
+27.4 +25.4 89 +40 +43 очень
душно
1004.5 1001.2 0.2
12 16.09 штиль 0 2000 м слаб. дождь {гроза, морось} 9/5 540 м
[Cb calv Ac trans]
+26.0 +25.1 95 +37 +37 очень
душно
1004.9 1001.6 +33.9 2
00 17.09 штиль 0 2000 м дымка 8/4 600 м
[Sc Ac trans]
+25.8 +24.9 95 +37 +37 очень
душно
1007.7 1004.4 3
03 17.09 штиль 0 4000 м мгла 8/4 600 м
[Cb calv Ac trans]
+28.6 +25.2 82 +42 +47 опасность
перегрева
1009.8 1006.5 +25.5 3
06 17.09 штиль 0 4000 м мгла 6/5 600 м
[Sc diur, vesp Ac trans]
+33.0 +25.7 66 +48 +59 опасность
перегрева
1008.6 1005.3
09 17.09 штиль 0 4000 м мгла 5/3 600 м
[Sc Ac trans]
+32.8 +26.4 69 +49 +56 опасность
перегрева
1005.7 1002.4
12 17.09 штиль 0 4000 м мгла 6/3 600 м
[Sc Ac trans]
+31.6 +26.9 76 +49 +49 опасность
перегрева
1006.6 1003.3 +34.6
00 18.09 штиль 0 2000 м дымка 9/4 540 м
[Sc Ac trans]
+26.6 +25.7 95 +39 +39 очень
душно
1009.5 1006.2
03 18.09 штиль 0 4000 м дымка 8/4 540 м
[Sc Ac trans]
+29.4 +26.9 86 +46 +51 опасность
перегрева
1011.5 1008.2 +26.3
06 18.09 штиль 0 4000 м 4/4 600 м
[Sc diur, vesp]
+34.4 +26.1 62 +50 +65 опасность
перегрева
1010.1 1006.9
09 18.09 штиль 0 4000 м 4/4 600 м
[Sc diur, vesp]
+35.4 +25.3 56 +49 +56 опасность
перегрева
1007.4 1004.2
12 18.09 штиль 0 4000 м мгла 5/3 600 м
[Sc Ac trans]
+33.0 +26.9 70 +51 +51 опасность
перегрева
1007.2 1003.9 +35.9
00 19.09 штиль 0 2000 м дымка 5/3 600 м
[Sc Ac trans]
+27.0 +26.2 95 +41 +41 опасность
перегрева
1010.7 1007.4
03 19.09 штиль 0 4000 м мгла 5/3 600 м
[Sc Ac trans]
+30.4 +26.2 78 +46 +54 опасность
перегрева
1011.9 1008.6 +26.7
06 19.09 штиль 0 4000 м 4/4 600 м
[Sc diur, vesp]
+34.4 +26.4 63 +51 +66 опасность
перегрева
1010.1 1006.9
09 19.09 СЗ 1 4000 м 5/5 600 м
[Sc diur, vesp]
+35.4 +25.6 57 +50 +55 опасность
перегрева
1006.5 1003.3
12 19.09 штиль 0 4000 м мгла 8/1 600 м
[Sc Ac trans Ci fib]
+32.6 +27.1 73 +51 +51 опасность
перегрева
1006.9 1003.6 +35.8
00 20.09 штиль 0 4000 м дымка 9/5 540 м
[Sc diur, vesp Ac trans]
+27.6 +26.2 92 +42 +42 опасность
перегрева
1009.6 1006.3
03 20.09 штиль 0 4000 м дымка 8/4 600 м
[Sc diur, vesp Ac trans]
+29.0 +26.8 88 +45 +50 опасность
перегрева
1010.8 1007.5 +26.9
06 20.09 штиль 0 4000 м мгла 8/5 600 м
[Sc diur, vesp Ac trans]
+34.2 +27.4 68 +53 +61 опасность
перегрева
1008.4 1005.2
09 20.09 штиль 0 4000 м мгла 6/5 600 м
[Sc diur, vesp Ac trans]
+34.8 +26.8 63 +52 +57 опасность
перегрева
1005.3 1002.1
12 20.09 штиль 0 4000 м мгла 4/3 600 м
[Sc Ac trans]
+31.6 +27.2 78 +50 +50 опасность
перегрева
1005.9 1002.6 +35.4
00 21.09 штиль 0 2000 м дымка 9/4 600 м
[Sc Ac trans]
+26.8 +25.4 92 +39 +39 очень
душно
1007.9 1004.6
03 21.09 штиль 0 4000 м мгла 5/3 600 м
[Sc Ac trans]
+29.6 +26.5 83 +45 +53 опасность
перегрева
1009.3 1006.0 +26.5
06 21.09 штиль 0 4000 м 4/4 600 м
[Sc diur, vesp]
+34.8 +25.6 59 +50 +64 опасность
перегрева
1007.2 1004.0
09 21.09 штиль 0 4000 м 6/4 600 м
[Sc diur, vesp Ci fib]
+35.8 +26.1 57 +51 +57 опасность
перегрева
1003.8 1000.6
12 21.09 З 1 4000 м мгла {гроза} 8/4 600 м
[Cb calv Ac trans]
+30.6 +26.7 80 +48 +48 опасность
перегрева
1006.2 1002.9 +36.3
15 21.09 0 н/о
00 22.09 штиль 0 2000 м дымка {гроза, дождь} 8/5 540 м
[Sc Ac trans]
+25.6 +24.7 95 +36 +36 очень
душно
1009.9 1006.6 9
03 22.09 штиль 0 4000 м дымка 9/3 600 м
[Sc Ac trans Ci fib]
+28.2 +25.4 85 +41 +47 опасность
перегрева
1011.3 1008.0 +25.2 9
06 22.09 штиль 0 4000 м 6/5 600 м
[Sc diur, vesp Ac trans]
+33.6 +26.4 66 +50 +61 опасность
перегрева
1009.0 1005.7
09 22.09 штиль 0 4000 м 8/5 600 м
[Sc diur, vesp Ci fib]
+35.0 +25.2 57 +49 +54 опасность
перегрева
1006.6 1003.4
12 22.09 штиль 0 2000 м гроза, ливневой дождь 10/5 540 м
[Cb calv As op]
+26.8 +25.1 90 +39 +39 очень
душно
1009.4 1006.1 +35.5 6

 

Местоположение метеостанции Силчар (Ассам, Индия): широта 24.75 долгота 92.80 высота над уровнем моря 29 м.

В архиве по умолчанию представлена погода в Силчаре за последнюю неделю. Архивные данные за месяц целиком и за предыдущие месяцы, начиная с января 2011 года, Вы можете получить, выбрав интересующий диапазон дат из раскрывающегося списка и нажав кнопку "Ввод!".


*Определитесь, кто Вы:
робот инопланетянин человек

Внимание! Время в таблицах - всемирное. Для получения местного времени необходимо прибавить поправку, которая равна 5.5 ч.

Смотрите также архив погоды в соседних городах и на ближайших метеорологических станциях:

Погода в Хафлонге (Ассам, Индия) (52 км)
Погода в Кайлашахаре (Трипура, Индия) (94 км)
Погода в Силхете (Бангладеш) (94 км)
Погода в Ленгпи (Мизорам, Индия) (104 км)
Погода в Импхале (Манипур, Индия) (112 км)
Погода в Аиджале (Мизорам, Индия) (114 км)
Погода в Ламдинге (Ассам, Индия) (118 км)
Погода в Стримангале (Бангладеш) (119 км)
Погода в Черапунджи (Мегхалая, Индия) (121 км)
Погода в Шиллонге (Мегхалая, Индия) (130 км)

Пояснения к столбцам:

Ветер - указаны скорость ветра в м/с - средняя за 10 мин, порывы в срок и между сроками (в фигурных скобках) и направление, откуда дует ветер: С - северный, СВ - северо-восточный, В - восточный, ЮВ - юго-восточный, Ю - южный, ЮЗ - юго-западный, З - западный, СЗ - северо-западный.
Видимость - горизонтальная дальность видимости в метрах или километрах. При видимости от 1 до 10 км при отсутствии осадков обычно наблюдается дымка, при ухудшении видимости до 1 км и менее - туман. В сухую погоду видимость может ухудшаться дымом, пылью или мглою.
Явления - указаны атмосферные явления, наблюдавшиеся в срок или в последний час перед сроком; фигурными скобками обозначены явления, наблюдавшиеся между сроками (за 1-3 часа до срока); квадратными скобками обозначены град или гололедные отложения с указанием их диаметра в мм.
Облачность - указаны через наклонную черту общая и нижняя облачность в баллах и высота нижней границы облаков в метрах; квадратными скобками обозначены формы облаков: Ci - перистые, Cs - перисто-слоистые, Cc - перисто-кучевые, Ac - высококучевые, As - высокослоистые, Sc - слоисто-кучевые, Ns - слоисто-дождевые, Cu - кучевые, Cb - кучево-дождевые. Подробнее классификацию облаков см. в Атласе облаков (PDF).
T - Температура воздуха - температура, измеренная на высоте 2 м над землей.
Td - Температура точки росы - температура, при понижении до которой содержащийся в воздухе водяной пар достигнет насыщения.
f - Относительная влажность воздуха - влажноcть воздуха, измеренная на высоте 2 м над землей.
Te - Эффективная температура - температура, которую ощущает одетый по сезону человек в тени. Характеристика душности погоды. При расчете учитывается влияние влажности воздуха и скорости ветра на теплоощущения человека.
Tes - Эффективная температура на солнце - температура, которую ощущает человек, с поправкой на солнечный нагрев. Характеристика знойности погоды. Зависит от высоты солнца над горизонтом, облачности и скорости ветра. Ночью, в пасмурную погоду, а также при ветре 12 м/с и более поправка равна нулю.
P - Атмосферное давление - приведенное к уровню моря атмосферное давление.
Po - Атмосферное давление - измеренное на уровне метеостанции атмосферное давление.
Tmin - Минимальная температура - минимум температуры воздуха на высоте 2 м над землей.
Tmax - Максимальная температура - максимум температуры воздуха на высоте 2 м над землей.
R - Количество осадков - Количество выпавших осадков за период времени, мм. При наведении курсора мыши на число - период времени, за который выпало указанное количество осадков.
R24 - Количество осадков - Количество выпавших осадков за 24 часа, мм.
S - Снежный покров - Высота снежного покрова, см. При наведении курсора мыши на число - состояние снежного покрова и степень покрытия местности в баллах.